Regional Weather Roundup
Issued by NWS Nashville, TN

Home | Current Version | Previous Version | Text Only | Print | Product List | Glossary On
Versions: 1 2 3 4 5 6 7 8 9 10 11 12 13 14 15 16 17 18 19 20 21 22 23 24 25 26 27 28 29 30 31 32 33 34 35 36 37 38 39 40 41 42 43 44 45 46 47 48 49 50
993
ASUS44 KOHX 052310
RWROHX
MIDDLE TENNESSEE HOURLY WEATHER ROUNDUP
NATIONAL WEATHER SERVICE NASHVILLE TN
500 PM CST FRI FEB 05 2016

NOTE: "FAIR" INDICATES FEW OR NO CLOUDS BELOW 12,000 FEET WITH
NO SIGNIFICANT WEATHER AND/OR OBSTRUCTIONS TO VISIBILITY.

* THESE REPORTS ARE NOT UNDER NWS QUALITY CONTROL AND MAY NOT
  REPORT WEATHER SUCH AS PRECIPITATION AND FOG.


TNZ005>011-023>034-057-059-062>066-078-080-060000
...NORTHERN MIDDLE TENNESSEE...

CITY           SKY/WX    TMP DP  RH WIND       PRES   REMARKS
CLARKSVILLE    CLOUDY    46  19  34 W5        30.38S
CROSSVILLE     CLEAR     40  12  32 N5        30.36S
DICKSON        CLOUDY    45  16  31 W5        30.37S
LEBANON        CLEAR     44  12  27 CALM      30.38S
LIVINGSTON     CLEAR     42  13  31 CALM      30.37
NASHVILLE      MOCLDY    47  12  24 CALM      30.39F
PORTLAND       CLEAR    N/A N/A N/A S5        30.37F
ROCKWOOD       CLEAR     40  14  34 S3        30.36F
SMYRNA         CLEAR     44  15  31 SE6       30.40F
SPARTA         CLEAR     41  18  38 CALM      30.37S
$$
TNZ056-058-060-061-075>077-079-093>097-060000
...SOUTHERN MIDDLE TENNESSEE...

CITY           SKY/WX    TMP DP  RH WIND       PRES   REMARKS
COLUMBIA       CLEAR     45  25  45 E3        30.36F
FAYETTEVILLE   CLEAR     45  16  31 N5        30.38S
LEWISBURG      CLEAR     46  13  26 CALM      30.39S
MCMINNVILLE    CLEAR     43  18  36 CALM      30.38F
SHELBYVILLE    CLEAR     45  16  31 CALM      30.40S
TULLAHOMA      CLEAR     41  12  30 CALM      30.38F
WINCHESTER     CLEAR     43  18  36 NE6       30.38F
$$


...KEY TO REMARKS...
VSB - VISIBILITY IN MILES
WCI - WIND CHILL INDEX
HX  - HEAT INDEX





USA.gov is the U.S. government's official web portal to all federal, state and local government web resources and services.